Location: Bun Machan
(52.1403°N, 7.3744°W)
Time: 01:31:16
(UTC+00:00)

Daily predictions for brighter satellites

Satellite Brightness Start Highest point End
(mag) Time Altitude Azimuth Time Altitude Azimuth Time Altitude Azimuth
Cosmos 1269 Rocket 4.2 00:07:29 26° S 00:10:23 60° ESE 00:15:36 10° NNE
Lacrosse 5 2.8 00:10:39 26° SSE 00:11:54 29° SE 00:16:15 10° ENE
Cosmos 1441 Rocket 4.5 00:10:43 23° SE 00:12:12 30° E 00:15:41 10° NNE
Cosmos 2228 Rocket 3.6 00:12:22 10° NNW 00:16:48 51° W 00:19:06 26° SSW
SL-4 R/B 1.3 00:19:37 43° NNW 00:19:37 43° NNW 00:21:04 10° NNW
Meteor 1-4 Rocket 4.4 00:16:01 10° N 00:19:10 25° ENE 00:21:27 15° ESE
SL-16 R/B 4.4 00:15:03 10° ESE 00:19:56 25° NE 00:24:49 10° N
CZ-4C R/B 3.6 00:15:19 10° NW 00:21:58 41° WSW 00:26:34 22° S
Nimbus 7 Rocket 4.5 00:17:06 10° NNE 00:23:02 77° WNW 00:27:12 20° SSW
Cosmos 1500 Rocket 4.0 00:20:51 23° SW 00:23:25 54° WNW 00:27:43 10° N
Cosmos 1607 4.1 00:20:03 23° SSW 00:23:57 59° SE 00:30:10 10° NE
Cosmos 494 Rocket 4.1 00:20:26 19° SW 00:24:07 73° WNW 00:29:18 10° NNE
Cosmos 1943 3.2 00:19:53 19° SSW 00:24:08 85° WNW 00:29:50 10° NNE
Cosmos 1666 Rocket 4.2 00:23:50 27° SSE 00:25:49 45° E 00:29:59 10° NNE
NOSS 2-1 (C) 4.4 00:24:58 10° NW 00:29:37 66° NE 00:36:05 10° ESE
Helios 1B rocket 3.7 00:27:43 10° NE 00:31:20 29° E 00:33:01 21° SE
Meteor 1-10 Rocket 4.4 00:26:14 10° NNW 00:31:44 62° W 00:34:52 26° S
CRYOSAT 2 4.5 00:27:03 10° N 00:31:55 68° E 00:34:29 28° S
NOSS 2-1 (D) 4.4 00:29:41 10° NW 00:34:24 70° NE 00:41:00 10° SE
Cosmos 1656 Rocket 4.3 00:30:42 10° NW 00:35:42 39° WSW 00:38:15 25° SSW
USA 267 3.5 00:32:12 21° SSE 00:36:28 48° SW 00:42:47 10° WNW
SL-16 R/B 4.2 00:34:12 10° W 00:38:59 27° NW 00:43:47 10° NNE
Helios 1A 3.2 00:38:50 31° SSW 00:40:37 57° W 00:44:44 10° NNW
Cosmos 972 Rocket 4.2 00:35:11 10° NNW 00:41:21 88° WSW 00:44:49 24° SSE
Cosmos 1805 Rocket 3.7 00:39:37 28° SSW 00:41:50 69° WNW 00:46:13 10° N
SL-4 R/B 1.6 00:43:34 33° WSW 00:44:27 50° NW 00:47:04 10° NNE
CZ-2D R/B 4.3 00:42:07 10° NE 00:45:07 15° E 00:48:07 10° ESE
Cosmos 1821 Rocket 4.2 00:41:34 21° SSW 00:45:42 63° WNW 00:51:47 10° N
YAOGAN 11 4.3 00:44:19 30° S 00:46:25 64° WSW 00:50:54 10° NNW
ALOS 2 4.0 00:45:17 19° SW 00:47:15 27° W 00:50:59 10° NW
Cosmos 2123 Rocket 4.0 00:44:02 10° NNW 00:50:12 71° W 00:54:01 24° S
Cosmos 1238 Rocket 3.9 00:50:05 24° SSE 00:52:59 49° E 00:57:17 10° NNE
Meteor 1-27 Rocket 3.9 00:49:19 10° NNW 00:54:54 65° W 00:58:15 25° S
SWARM C 4.5 00:54:51 10° N 00:58:12 81° W 00:59:17 40° S
SWARM A 4.2 00:54:55 10° N 00:58:16 73° W 00:59:20 40° SSW
Meteor 1-29 4.2 00:56:11 10° NNE 00:59:14 30° E 01:00:26 24° SE
BREEZE-M DEB (TANK) 3.9 00:56:22 10° WSW 01:00:41 74° S 01:18:10 10° E
Cosmos 44 Rocket 4.2 00:56:28 10° WSW 01:01:01 46° NW 01:05:40 10° NE
Cosmos 2369 Rocket 4.2 01:04:39 10° WNW 01:07:09 13° W 01:09:33 10° WSW
USA 32 4.3 01:04:16 24° SSW 01:07:24 63° W 01:12:39 10° N
Cosmos 1707 Rocket 4.3 01:03:11 10° NNW 01:07:24 42° W 01:09:25 26° SSW
Sich 1 3.7 01:10:31 23° SW 01:12:53 46° WNW 01:17:09 10° N
Cosmos 1992 Rocket 4.1 01:08:21 10° NNW 01:13:33 65° WSW 01:16:38 24° S
Cosmos 1605 Rocket 4.0 01:11:59 23° S 01:16:06 88° WNW 01:22:23 10° N
Okean 1-7 3.9 01:12:10 10° N 01:16:26 45° ENE 01:19:46 16° SE
Cosmos 1470 Rocket 3.7 01:16:51 27° S 01:19:14 73° E 01:23:44 10° NNE
Cosmos 1934 Rocket 4.3 01:15:56 21° SSW 01:20:09 59° WNW 01:26:25 10° N
Meteor 1-19 Rocket 4.5 01:16:57 10° N 01:22:37 65° ENE 01:27:06 16° SSE
Cosmos 1633 Rocket 3.3 01:20:41 26° SSW 01:23:01 63° WNW 01:27:26 10° N
ADEOS II 4.5 01:20:54 10° ENE 01:23:15 13° E 01:25:36 10° ESE
NOSS 2-1 (E) 4.3 01:20:09 10° NW 01:25:11 71° SW 01:32:15 10° SSE
Resurs 1-4 Rocket 3.4 01:23:42 10° NNE 01:28:26 31° E 01:32:21 14° SSE
ISS -3.9 01:25:22 10° W 01:28:43 84° S 01:32:07 10° E
Cosmos 1862 Rocket 4.0 01:25:04 10° NNW 01:29:24 51° W 01:31:38 26° SSW
PSLV R/B 3.8 01:25:43 10° N 01:29:57 64° WNW 01:32:24 25° SSW
Cosmos 389 Rocket 4.2 01:29:17 10° NW 01:31:50 19° W 01:32:46 17° WSW
Abrixas rocket 2.6 01:35:13 34° SSE 01:35:13 34° SSE 01:37:22 10° ESE
Cosmos 2251 Rocket 3.5 01:32:39 24° SSW 01:35:54 87° ESE 01:41:12 10° NNE
UNK 4.4 01:33:05 12° SE 01:37:14 54° ENE 01:41:46 10° N
ATLAS 5 CENTAUR R/B 3.4 01:33:48 10° NW 01:38:53 46° NNE 01:44:48 10° ESE
Gbstr 26 Del rocket 2.7 01:37:16 10° W 01:41:11 76° SSW 01:45:44 10° ESE
Cosmos 2369 4.4 01:39:07 10° NNW 01:44:46 55° NE 01:50:23 10° SE
USA 215 3.6 01:38:37 10° ENE 01:45:09 68° NNW 01:51:38 10° W
Cosmos 1980 Rocket 3.7 01:40:01 10° NNW 01:45:23 39° NE 01:50:41 10° ESE
CZ-4 R/B 4.3 01:41:03 10° N 01:45:39 52° WNW 01:48:48 20° SW
Cosmos 2242 Rocket 3.7 01:41:37 10° NNW 01:46:11 66° W 01:48:52 24° S
Cosmos 2173 Rocket 4.3 01:43:03 18° S 01:47:51 67° E 01:54:06 10° NNE
Spot 1 4.3 01:48:09 20° S 01:51:30 73° WSW 01:56:08 10° NNW
Meteor 1-4 Rocket 3.7 01:50:57 10° NNW 01:54:14 30° W 01:55:37 23° SW
Lacrosse 5 1.9 01:49:48 13° WSW 01:54:27 87° NNW 01:59:35 10° ENE
Okean 3 4.4 01:50:37 10° N 01:54:39 44° ENE 01:58:41 10° SSE
Cosmos 1602 3.6 01:52:47 26° SSW 01:54:50 83° WNW 01:58:43 10° N
Okean 1 3.5 01:53:43 10° NNW 01:57:37 54° W 01:59:44 24° SSW
IRAS Rocket 4.2 01:54:13 17° S 01:58:29 71° WSW 02:04:01 10° NNW
Cosmos 2016 Rocket 4.5 01:53:41 14° SSE 01:58:49 56° E 02:04:55 10° NNE
BREEZE-M DEB (TANK) 3.2 01:58:56 27° SW 01:59:41 32° S 02:04:24 10° SE
SL-16 R/B 2.5 01:57:01 12° SSE 02:02:52 86° WSW 02:09:13 10° NNW
Meteor 2-4 Rocket 3.9 01:56:57 10° NNW 02:02:56 83° ENE 02:08:32 11° SSE
Cosmos 1933 Rocket 3.7 02:00:33 23° SSW 02:03:10 61° WNW 02:07:30 10° N
Helios 1B rocket 3.5 02:02:53 10° N 02:06:39 35° WNW 02:09:20 17° WSW
Cosmos 1869 Rocket 3.8 02:04:44 19° S 02:07:44 65° E 02:12:04 10° NNE
Iridium 4 Rocket 4.3 02:04:00 19° SW 02:07:45 43° W 02:12:47 10° N
MOZ.5/SAFIR/RUBIN 5/SL-8 3.9 02:04:31 19° S 02:07:54 63° WSW 02:12:39 10° NNW
Meteor 1-14 Rocket 4.2 02:05:00 19° S 02:09:05 90° SE 02:14:49 10° NNE
Cosmos 1437 Rocket 2.7 02:06:16 10° NNW 02:10:20 87° W 02:13:21 17° S
Cosmos 921 Rocket 4.0 02:06:12 10° NNW 02:10:30 47° ENE 02:14:42 10° SE
Cosmos 1703 Rocket 3.9 02:08:06 10° NNW 02:12:26 50° W 02:15:14 20° SSW
Cosmos 1697 Rocket 2.7 02:08:09 10° NNW 02:13:50 86° ENE 02:19:28 10° SSE
Cosmos 2221 Rocket 4.0 02:10:28 10° N 02:14:52 61° ENE 02:19:13 10° SSE
NOSS 7 (D) 3.8 02:14:46 10° NW 02:17:32 68° SW 02:20:31 10° SE
SeaSat 1 3.2 02:16:15 10° NE 02:20:59 44° ESE 02:24:48 15° S
Cosmos 1184 Rocket 3.9 02:22:55 19° WSW 02:24:41 33° WNW 02:27:41 10° N
CZ-4B R/B 4.1 02:19:49 10° NNE 02:24:48 51° E 02:29:10 12° S
IRS-1D 4.4 02:20:05 10° NNE 02:24:49 42° E 02:29:29 10° S
CZ-2D R/B 2.2 02:20:37 10° NNE 02:26:00 82° ESE 02:30:27 16° SSW
Cosmos 614 Rocket 3.9 02:23:13 18° SSW 02:27:02 84° WNW 02:32:13 10° NNE
Cosmos 2082 Rocket 3.4 02:22:31 10° S 02:27:31 34° ESE 02:32:36 10° NE
Aureole 1 Rocket 4.1 02:26:02 15° S 02:29:54 54° ESE 02:36:01 10° NNE
Cosmos 405 Rocket 3.1 02:27:52 19° SW 02:30:20 52° WNW 02:34:02 10° N
COBE Rocket 4.5 02:25:45 10° SSE 02:30:39 59° ENE 02:35:27 10° N
Cosmos 1833 Rocket 3.1 02:26:35 15° S 02:31:07 54° ESE 02:36:35 10° NE
Cosmos 1656 4.0 02:28:03 10° NW 02:33:11 43° WSW 02:37:53 12° S
Cosmos 2100 Rocket 4.3 02:29:50 16° SSW 02:34:51 59° WNW 02:41:01 10° N
Cosmos 1500 3.1 02:33:19 18° SSW 02:36:02 77° W 02:39:51 10° N
COSMOS 2406 3.3 02:31:43 16° SSW 02:36:22 82° ESE 02:42:11 10° NNE
Cosmos 1140 Rocket 3.6 02:32:12 16° SSW 02:36:25 73° ESE 02:41:40 10° NNE
Cosmos 407 Rocket 3.6 02:35:25 16° SSW 02:39:45 86° WNW 02:45:09 10° NNE
Cosmos 2360 4.2 02:34:49 10° NNW 02:40:36 81° WSW 02:46:20 10° SSE
Cosmos 1459 Rocket 4.3 02:37:20 15° SSW 02:42:18 56° WNW 02:48:24 10° N
EP 1 4.3 02:41:14 21° SW 02:42:55 70° SE 02:45:30 10° NE
Cosmos 1674 Rocket 4.1 02:41:45 10° N 02:46:05 59° ENE 02:50:20 10° SSE
Cosmos 2233 Rocket 4.3 02:39:57 10° S 02:46:05 67° E 02:52:20 10° NNE
Cosmos 192 4.3 02:42:14 10° NNW 02:47:11 81° WSW 02:52:05 10° SSE
Cosmos 2322 Rocket 4.1 02:43:52 10° NNW 02:48:58 33° NE 02:54:05 10° ESE
ATLAS 5 CENTAUR R/B 3.2 02:45:49 10° WNW 02:49:09 40° SW 02:58:39 10° SSE
CZ-4C R/B 4.2 02:47:14 16° SSW 02:49:37 30° W 02:52:53 10° NW
Cosmos 1666 2.8 02:48:04 12° S 02:51:27 73° E 02:55:12 10° NNE
Cosmos 1066 Rocket 4.5 02:47:21 10° N 02:53:16 79° ENE 02:59:07 10° SSE
Cosmos 1802 Rocket 4.3 02:47:51 14° SSW 02:53:23 58° WNW 02:59:46 10° N
Okean 1-7 4.5 02:50:15 10° NW 02:53:45 23° W 02:56:36 13° SW
Meteor 1-13 Rocket 4.3 02:49:11 10° NNW 02:54:54 64° W 03:00:27 10° S
ARIANE 5 R/B 3.6 02:52:16 10° NNE 02:57:03 40° E 03:01:51 10° SSE
Cosmos 676 Rocket 4.1 02:56:57 12° SSW 03:01:52 77° ESE 03:07:12 10° NNE
Cosmos 1818 3.7 02:58:14 10° NW 03:03:45 86° NE 03:09:12 10° SE
ADEOS II 2.3 02:58:36 10° NNE 03:03:54 74° ESE 03:09:09 10° S
NPP 3.9 02:59:57 10° N 03:05:16 60° WNW 03:10:20 11° SW
ISS -3.5 03:02:09 10° W 03:05:24 47° SSW 03:08:38 10° SE
Cosmos 1743 4.0 03:04:00 10° SSE 03:07:31 37° E 03:11:05 10° NNE
Resurs 1-4 Rocket 2.6 03:03:21 10° N 03:08:28 49° WNW 03:13:26 11° SW
SL-08 R/B 3.4 03:03:56 10° SSE 03:08:43 90° E 03:13:37 10° NNW
Abrixas rocket 3.0 03:07:17 10° WSW 03:09:41 24° SSW 03:12:06 10° SE
AQUA 4.1 03:06:00 10° N 03:10:42 59° WNW 03:15:16 11° SSW
Cosmos 1733 Rocket 3.0 03:06:44 10° S 03:11:04 87° WNW 03:15:25 10° N
Cosmos 1725 Rocket 4.2 03:05:47 11° SSW 03:11:42 60° WNW 03:17:55 10° N
Cosmos 1242 Rocket 2.6 03:16:37 10° N 03:20:06 77° ENE 03:23:34 10° SSE
Cosmos 2360 Rocket 4.3 03:16:03 10° NNW 03:21:09 33° NE 03:26:15 10° ESE
ATLAS 5 CENTAUR R/B 2.4 03:18:20 10° NW 03:23:49 59° SW 03:30:10 10° SSE
Gbstr 26 Del rocket 3.8 03:23:57 10° W 03:27:45 33° SSW 03:32:13 10° SSE
USA 215 3.9 03:21:23 10° E 03:27:50 60° N 03:34:16 10° WNW
deb Kosmos-1763 4.0 03:24:32 10° SSW 03:28:07 86° ESE 03:31:45 10° NNE
Cosmos 2369 4.5 03:23:40 10° NW 03:28:44 33° WSW 03:33:47 10° SSW
Cosmos 1980 Rocket 2.4 03:24:04 10° NW 03:29:35 51° WSW 03:35:03 10° S
Cosmos 1378 3.1 03:26:17 10° NNW 03:30:03 79° W 03:33:48 10° S
SL-8 R/B 3.9 03:25:38 10° WSW 03:30:19 54° S 03:35:01 10° E
CSL-04 DEB 4.5 03:28:54 10° SSE 03:33:01 88° ENE 03:37:05 10° NNW
IRS-P3 4.2 03:31:28 10° NNE 03:36:50 77° WNW 03:42:10 10° SSW
Cosmos 1975 Rocket 3.9 03:33:02 10° N 03:37:24 55° ENE 03:41:46 10° SSE
Lacrosse 5 2.8 03:32:52 10° W 03:37:50 50° N 03:42:47 10° ENE
IDEFIX/ARIANE 42P 3.2 03:34:15 10° NNE 03:39:23 56° E 03:44:28 10° S
BREEZE-M TANK 3.4 03:37:10 10° SW 03:39:54 31° SSE 03:44:22 10° ESE
Meteor 2-11 Rocket 4.5 03:33:59 10° SSW 03:40:04 82° WNW 03:46:11 10° N
Cosmos 1356 3.6 03:38:55 10° SSW 03:42:19 60° WNW 03:45:45 10° N
Cosmos 1536 3.6 03:39:06 10° SW 03:42:55 38° WNW 03:46:45 10° N
SL-16 R/B 4.0 03:43:11 10° SW 03:47:24 19° W 03:51:39 10° NW
